Location: Bosdarros
(43.2167°N, 0.3667°W)
Time: 03:38:23
(UTC+00:00)

BREEZE-M DEB (TANK) - Pass Details

Date: 22 April 2021
Orbit: 351 x 16372 km, 49.4° (Epoch: 14 May)

Event Time Altitude Azimuth Distance (km) Brightness Sun altitude
Rises 19:50:05 0° 288° (WNW) 2,190 7.4 -10.4°
Reaches altitude 10° 19:51:57 10° 271° (W) 1,334 5.4 -10.7°
Maximum altitude 19:54:02 24° 212° (SSW) 922 3.5 -11.1°
Enters shadow 19:57:09 10° 155° (SSE) 2,037 4.7 -11.6°
